Weather History for Thermal, CA

Change the Weather History Date:

Tuesday, November 20, 2012

  Actual Average Record
Temperature  
Mean Temperature 62 °F 59 °F  
Max Temperature 81 °F 77 °F 90 °F (1954)
Min Temperature 43 °F 41 °F 24 °F (1994)
Degree Days  
Heating Degree Days 3 6  
Month to date heating degree days 73 72  
Since 1 July heating degree days 73 83  
Cooling Degree Days 0 0  
Month to date cooling degree days 43 33  
Year to date cooling degree days 4272 3686  
Growing Degree Days 12 (Base 50)    
Moisture  
Dew Point 40 °F    
Average Humidity 52    
Maximum Humidity 82    
Minimum Humidity 21    
Precipitation  
Precipitation 0.00 in 0.01 in 0.12 in (1963)
Month to date precipitation T 0.13  
Year to date precipitation 2.40 2.75  
Since 1 July precipitation 2.04 0.93  
Snow  
Snow 0.00 in - - ()
Month to date snowfall 0.0  
Year to date snowfall 0.0  
Since 1 July snowfall 0.0  
Snow Depth 0.00 in    
Sea Level Pressure  
Sea Level Pressure 30.04 in    
Wind  
Wind Speed 4 mph (NNW)    
Max Wind Speed 8 mph    
Max Gust Speed 13 mph    
Visibility 10 miles    
Events      
T = Trace of Precipitation, MM = Missing Value Source: NWS Daily Summary

Daily Weather History Graph

Daily Weather History Graph

Search for Another Location

Airport:

Trip Planner

Search our weather history database for the weather conditions in past years. The results will help you decide how hot, cold, wet, or windy it might be!

Date:

Astronomy

Nov. 20, 2012 Rise Set
Actual Time 6:21 AM PST 4:38 PM PST
Civil Twilight 5:54 AM PST 5:05 PM PST
Nautical Twilight 5:24 AM PST 5:36 PM PST
Astronomical Twilight 4:54 AM PST 6:05 PM PST
Moon 12:08 PM PST (11/20) No Moon Set
Length of Visible Light 11h 10m
Length of Day
10h 17m
First Quarter, 52% of the Moon is Illuminated
Nov 20
First Quarter
Nov 28
Full
Dec 6
Last Quarter
Dec 13
New
Dec 19
First Quarter

Hourly Weather History & Observations

Time (PST) Temp. Windchill Dew Point Humidity Pressure Visibility Wind Dir Wind Speed Gust Speed Precip Events Conditions
12:52 AM 50.0 °F - 41.0 °F 71% 30.12 in 10.0 mi NNE 3.5 mph - N/A   Clear
1:52 AM 54.0 °F - 42.1 °F 64% 30.11 in 10.0 mi North 5.8 mph - N/A   Clear
2:52 AM 46.9 °F - 41.0 °F 80% 30.10 in 10.0 mi Calm Calm - N/A   Clear
3:52 AM 48.0 °F - 42.1 °F 80% 30.09 in 10.0 mi North 3.5 mph - N/A   Clear
4:52 AM 46.9 °F - 39.9 °F 77% 30.09 in 10.0 mi NNW 4.6 mph - N/A   Clear
5:52 AM 44.1 °F - 37.9 °F 79% 30.10 in 10.0 mi Calm Calm - N/A   Clear
6:52 AM 46.0 °F 43.9 °F 39.0 °F 76% 30.12 in 10.0 mi NNW 4.6 mph - N/A   Clear
8:52 AM 64.9 °F - 43.0 °F 45% 30.12 in 10.0 mi NW 5.8 mph - N/A   Clear
9:52 AM 73.0 °F - 42.1 °F 33% 30.12 in 10.0 mi NW 5.8 mph - N/A   Clear
10:52 AM 75.0 °F - 39.9 °F 28% 30.08 in 10.0 mi WNW 4.6 mph - N/A   Clear
11:52 AM 78.1 °F - 41.0 °F 27% 30.04 in 10.0 mi Calm Calm - N/A   Clear
12:52 PM 80.1 °F - 39.9 °F 24% 30.01 in 10.0 mi SE 6.9 mph - N/A   Clear
1:52 PM 81.0 °F - 37.9 °F 21% 29.99 in 10.0 mi Variable 5.8 mph - N/A   Clear
2:52 PM 80.1 °F - 37.0 °F 21% 29.98 in 10.0 mi Variable 3.5 mph - N/A   Clear
3:52 PM 78.1 °F - 37.0 °F 23% 29.96 in 10.0 mi ESE 3.5 mph - N/A   Clear
4:52 PM 64.0 °F - 41.0 °F 43% 29.96 in 10.0 mi Calm Calm - N/A   Clear
5:52 PM 57.9 °F - 42.1 °F 56% 29.97 in 10.0 mi Calm Calm - N/A   Clear
6:52 PM 55.0 °F - 43.0 °F 64% 29.98 in 10.0 mi Calm Calm - N/A   Clear
7:52 PM 55.9 °F - 43.0 °F 62% 30.00 in 10.0 mi North 3.5 mph - N/A   Clear
8:52 PM 57.0 °F - 44.1 °F 62% 30.01 in 10.0 mi North 3.5 mph - N/A   Clear
9:52 PM 50.0 °F - 39.0 °F 66% 30.01 in 10.0 mi Calm Calm - N/A   Clear
10:52 PM 51.1 °F - 39.9 °F 66% 30.00 in 10.0 mi North 3.5 mph - N/A   Clear
11:52 PM 48.0 °F - 37.9 °F 68% 29.99 in 10.0 mi NW 3.5 mph - N/A   Clear